User: anonymous   Login
Location: Trebic
(49.2170°N, 15.8830°E)
Time: 01:38:10
(UTC+02:00)
Language:

Courier 1B Rocket - Orbit

View from above orbital plane
View from above orbital plane
View from above satellite
View from above satellite

Ground track
Ground track

The orbit data is extracted from the following two-line orbital elements,

1    59U 60013B   19200.15386195  .00000078  00000-0 -10807-4 0  9990
2    59  28.2479 135.4153 0189081   0.3474 359.7183 13.52968832901806
Epoch (UTC): 19 July 2019 03:41:33
Eccentricity: 0.0189081
inclination: 28.2479°
perigee height: 920 km
apogee height: 1202 km
right ascension of ascending node: 135.4153°
argument of perigee: 0.3474°
revolutions per day: 13.52968832
mean anomaly at epoch: 359.7183°
orbit number at epoch: 90180

The dashed part of the orbit path shows where the satellite is in the earth's shadow,  

DLR